Regional Weather Roundup
Issued by NWS

Home | Current Version | Previous Version | Text Only | Print | Product List | Glossary Off
Versions: 1 2 3 4 5 6 7 8 9 10 11 12 13 14 15 16 17 18 19 20 21 22 23 24 25 26 27 28 29 30 31 32 33 34 35 36 37 38 39 40 41 42 43 44 45 46 47 48 49 50

000
ASUS43 KBIS 162110
RWRND

NORTH DAKOTA REGIONAL WEATHER ROUNDUP
NATIONAL WEATHER SERVICE BISMARCK ND
300 PM CST SAT DEC 16 2017

NOTE: "FAIR" INDICATES FEW OR NO CLOUDS BELOW 12,000 FEET WITH NO
SIGNIFICANT WEATHER AND/OR OBSTRUCTIONS TO VISIBILITY.


NDZ001>003-009>011-017-162200-
NORTHWEST NORTH DAKOTA

CITY           SKY/WX    TMP DP  RH WIND       PRES   REMARKS
WILLISTON      MOSUNNY   35  22  58 W12       29.94F
MINOT          MOSUNNY   40  26  57 W13       29.89S
MINOT AFB      MOSUNNY   38  26  61 W9        29.88S
$$

NDZ018>021-031>035-040>046-162200-
SOUTHWEST NORTH DAKOTA

CITY           SKY/WX    TMP DP  RH WIND       PRES   REMARKS
BISMARCK       MOSUNNY   39  31  72 NW10      29.95R
DICKINSON      CLOUDY    34  24  67 W15       29.93R
GARRISON         N/A     36  27  69 W9        29.92R
HETTINGER ARPT CLOUDY    36  23  59 NW8       29.96S
$$

NDZ004>008-012>016-024-026-027-054-162200-
NORTHEAST NORTH DAKOTA

CITY           SKY/WX    TMP DP  RH WIND       PRES   REMARKS
GRAND FORKS    MOSUNNY   30  25  81 NW6       29.92R
GRND FRKS AFB  SUNNY     31  24  74 NW9       29.92R
DEVILS LAKE    CLOUDY    31  26  82 W3        29.91R
$$

NDZ022-023-025-028>030-036>039-047>053-162200-
SOUTHEAST NORTH DAKOTA

CITY           SKY/WX    TMP DP  RH WIND       PRES   REMARKS
FARGO          CLOUDY    32  27  81 W6        29.95R
JAMESTOWN      CLOUDY    37  30  75 N12       29.91R
$$





USA.gov is the U.S. government's official web portal to all federal, state and local government web resources and services.